COSMOS 2251 DEB

Satellite information

Favourite Embed

Satellite Type and Status

DEBRISIN ORBIT

Key statistics

Satellite COSMOS 2251 DEB at a glance.

Uptime

11869

Days in orbit

Revolutions

≈ 14.5

Per day

Orbit

LEO

Low Earth Orbit

Inclination

74.0

Latest

Satellite identification and parameters

Extended collection of information and parameters for COSMOS 2251 DEB.

Object identification

Identified? True

Debris? True

Object name: COSMOS 2251 DEB

International designator: 1993-036BNH

Object number (NORAD): 37528

Object ID (CCSDS): 37528

Country: COMMONWEALTH OF INDEPENDENT STATES (CIS)

Current information (Y/N): Y

RCS size: SMALL

Orbital parameters

Period: 99.275 minutes

Inclination: 74.0369 deg

SMA: 7102.107 km

Apoapsis: 738.942 km

Periapsis: 709.002 km

RAAN: 124.1531 deg

Eccentricy: 0.00210781

Argument of periapsis: 272.3506 deg

Mean anomaly: 87.5241 deg

Mean motion: 14.50514088 rev/day

Mean motion (dot): 0.00003121 rev/day2

B* drag term: 0.00080165521 1/REarth

Two-line elements (TLE)

Creation date: Dec. 11, 2025, 7:14 p.m.

Reference frame: TEME

Reference center: EARTH

Epoch: Dec. 11, 2025, 4 p.m. UTC

TLE line 0: 0 COSMOS 2251 DEB

TLE line 1: 1 37528U 93036BNH 25345.66669630 .00003121 00000-0 80166-3 0 9998

TLE line 2: 2 37528 74.0369 124.1531 0021078 272.3506 87.5241 14.50514088859157

Live tracking on map

Real-time ground track for satellite COSMOS 2251 DEB.

In-orbit conjunctions

A list of the most updated potential collisions computed for object COSMOS 2251 DEB.

Target Orbit TCA Probability of collision Miss distance Type
OV1-20/OV1-21 AKM LEO 2025-03-20 04:56:49 0.0004600876 181.0 (m) ROCKET BODY
FENGYUN 1C DEB SSO 2025-01-03 01:40:41 0.0002103544 146.0 (m) DEBRIS
ERS 2 DEB SSO 2024-07-25 17:04:18 0.000737915 48.0 (m) DEBRIS

Associated space launch

Military communications satellite. Destroyed in a collision with Iridium 33.

COSMOS 2251 DEB was lifted into orbit during the mission ‘Kosmos-3M | Strela-2M 51’, on board a Kosmos-3M space rocket.

The launch took place on June 16, 1993, 4:17 a.m. from 132/1 (132L).

For more information about the launch, click the button.

Launch to space Kosmos-3M | Strela-2M 51
Kosmos-3M | Strela-2M 51

Agency: N/A

Status: Launch Successful

Launch date: June 16, 1993, 4:17 a.m. UTC

Rocket: Kosmos-3M

Launch pad: 132/1 (132L)

Location: Plesetsk Cosmodrome, Russian Federation

...

Latest news about this satellite

There are no fresh news available about this satellite. Check back as we update our databases every day.


Newsletter sign-up

Weekly statistics, charts and insights to help you stay on top of the space industry.